Location: Bittkow
(50.3000°N, 19.0000°E)
Time: 14:21:54
(UTC+00:00)

Meteor 1-26 Rocket - Pass Details

Date: 19 September 2020
Orbit: 810 x 925 km, 81.3° (Epoch: 27 October)

Event Time Altitude Azimuth Distance (km) Brightness Sun altitude
Exits shadow 02:23:55 29° 205° (SSW) 1,446 5.0 -19.5°
Maximum altitude 02:26:43 73° 284° (WNW) 854 4.0 -19.1°
Drops below altitude 10° 02:32:09 10° 9° (N) 2,410 7.0 -18.3°
Sets 02:34:34 0° 12° (NNE) 3,350 7.9 -18.0°
